,,Stat5,,Stat1,,Stat2,,Stat3,,Stat4,,Wind1,,Wind1,
time,status,PA1M_AVG,status,PR1M_SUM,status,RH1M_AVG,status,SR1M_AVG,status,TA1M_AVG,status,W1dAve1m,status,W1sAve1m,
2001-01-21, 00:00:00,VALID,916.983,VALID,0,VALID,95.8294,VALID,0.118866,VALID,20.6502,VALID,122,VALID,0,
2001-01-21, 00:01:00,VALID,916.971,VALID,0,VALID,95.8434,VALID,0.101885,VALID,20.6338,VALID,148,VALID,0,
2001-01-21, 00:02:00,VALID,916.964,VALID,0,VALID,95.8167,VALID,0.101885,VALID,20.6176,VALID,163,VALID,0,
2001-01-21, 00:03:00,VALID,916.945,VALID,0,VALID,95.912,VALID,0.101885,VALID,20.5689,VALID,158,VALID,0,
2001-01-21, 00:04:00,VALID,916.948,VALID,0,VALID,96.113,VALID,0.101885,VALID,20.5597,VALID,157,VALID,0,
2001-01-21, 00:05:00,VALID,916.949,VALID,0,VALID,96.1804,VALID,0.0849042,VALID,20.5272,VALID,165,VALID,0,
2001-01-21, 00:06:00,VALID,916.965,VALID,0,VALID,96.2961,VALID,0.0339617,VALID,20.4989,VALID,165,VALID,0,
2001-01-21, 00:07:00,VALID,916.959,VALID,0,VALID,96.4423,VALID,-0.0169808,VALID,20.484,VALID,165,VALID,0,
2001-01-21, 00:08:00,VALID,916.946,VALID,0,VALID,96.5211,VALID,0,VALID,20.4611,VALID,164,VALID,0,
2001-01-21, 00:09:00,VALID,916.926,VALID,0,VALID,96.5962,VALID,0,VALID,20.4482,VALID,163,VALID,0,
2001-01-21, 00:10:00,VALID,916.907,VALID,0,VALID,96.5796,VALID,0,VALID,20.4315,VALID,163,VALID,0,
2001-01-21, 00:11:00,VALID,916.889,VALID,0,VALID,96.5033,VALID,0,VALID,20.4256,VALID,156,VALID,0,
2001-01-21, 00:12:00,VALID,916.884,VALID,0,VALID,96.3609,VALID,0.0169808,VALID,20.4221,VALID,147,VALID,0,
2001-01-21, 00:13:01,VALID,916.869,VALID,0,VALID,96.2795,VALID,0,VALID,20.4256,VALID,147,VALID,0,
2001-01-21, 00:14:00,VALID,916.863,VALID,0,VALID,96.2897,VALID,0,VALID,20.4418,VALID,147,VALID,0,
2001-01-21, 00:15:00,VALID,916.844,VALID,0,VALID,96.3228,VALID,0,VALID,20.4418,VALID,147,VALID,0,
2001-01-21, 00:16:00,VALID,916.812,VALID,0,VALID,96.3291,VALID,0,VALID,20.4547,VALID,147,VALID,0,
2001-01-21, 00:17:01,VALID,916.788,VALID,0,VALID,96.3355,VALID,0,VALID,20.4482,VALID,147,VALID,0,
2001-01-21, 00:18:00,VALID,916.783,VALID,0,VALID,96.305,VALID,0,VALID,20.4514,VALID,147,VALID,0,
2001-01-21, 00:19:01,VALID,916.766,VALID,0,VALID,96.2821,VALID,0.0169808,VALID,20.4452,VALID,156,VALID,0,
2001-01-21, 00:20:00,VALID,916.766,VALID,0,VALID,96.2821,VALID,-0.0169808,VALID,20.4582,VALID,196,VALID,0,
2001-01-21, 00:21:01,VALID,916.762,VALID,0,VALID,96.2668,VALID,-0.0509425,VALID,20.4691,VALID,228,VALID,0,
2001-01-21, 00:22:00,VALID,916.787,VALID,0,VALID,96.2745,VALID,-0.101885,VALID,20.4597,VALID,231,VALID,0,
2001-01-21, 00:23:00,VALID,916.789,VALID,0,VALID,96.2694,VALID,-0.101885,VALID,20.4858,VALID,231,VALID,0,
2001-01-21, 00:24:00,VALID,916.782,VALID,0,VALID,96.188,VALID,-0.101885,VALID,20.4888,VALID,231,VALID,0,
2001-01-21, 00:25:01,VALID,916.781,VALID,0,VALID,96.2554,VALID,-0.101885,VALID,20.4821,VALID,231,VALID,0,
2001-01-21, 00:26:00,VALID,916.784,VALID,0,VALID,96.2121,VALID,-0.101885,VALID,20.489,VALID,123,VALID,0,
2001-01-21, 00:27:01,VALID,916.785,VALID,0,VALID,96.057,VALID,-0.101885,VALID,20.4816,VALID,107,VALID,0,
2001-01-21, 00:28:00,VALID,916.768,VALID,0,VALID,95.9082,VALID,-0.118866,VALID,20.4953,VALID,107,VALID,0,
2001-01-21, 00:29:01,VALID,916.744,VALID,0,VALID,95.8269,VALID,-0.118866,VALID,20.4856,VALID,107,VALID,0,
2001-01-21, 00:30:01,VALID,916.719,VALID,0,VALID,95.8612,VALID,-0.101885,VALID,20.4888,VALID,107,VALID,0,
2001-01-21, 00:31:01,VALID,916.703,VALID,0,VALID,95.7455,VALID,-0.101885,VALID,20.4953,VALID,107,VALID,0,
2001-01-21, 00:32:01,VALID,916.703,VALID,0,VALID,95.6183,VALID,-0.0679233,VALID,20.489,VALID,115,VALID,0,
2001-01-21, 00:33:01,VALID,916.677,VALID,0,VALID,95.3856,VALID,-0.101885,VALID,20.4928,VALID,117,VALID,0,
2001-01-21, 00:34:01,VALID,916.66,VALID,0,VALID,95.1618,VALID,-0.118866,VALID,20.4368,VALID,117,VALID,0,
2001-01-21, 00:35:01,VALID,916.626,VALID,0,VALID,95.1923,VALID,-0.101885,VALID,20.4214,VALID,114,VALID,0,
2001-01-21, 00:36:01,VALID,916.59,VALID,0,VALID,95.1275,VALID,-0.0509425,VALID,20.3717,VALID,111,VALID,0,
2001-01-21, 00:37:01,VALID,916.564,VALID,0,VALID,95.2801,VALID,0,VALID,20.322,VALID,101,VALID,0,
2001-01-21, 00:38:01,VALID,916.537,VALID,0,VALID,95.6615,VALID,-0.0169808,VALID,20.3101,VALID,91,VALID,0,
2001-01-21, 00:39:01,VALID,916.529,VALID,0,VALID,95.837,VALID,0.0169808,VALID,20.2971,VALID,91,VALID,0,
2001-01-21, 00:40:01,VALID,916.512,VALID,0,VALID,95.8752,VALID,0,VALID,20.2777,VALID,91,VALID,0,
2001-01-21, 00:41:01,VALID,916.493,VALID,0,VALID,95.9515,VALID,0.0169808,VALID,20.2579,VALID,74,VALID,0,
2001-01-21, 00:42:01,VALID,916.497,VALID,0,VALID,96.0952,VALID,0.0169808,VALID,20.2382,VALID,68,VALID,0,
2001-01-21, 00:43:01,VALID,916.48,VALID,0,VALID,96.0176,VALID,0,VALID,20.2519,VALID,92,VALID,0,
2001-01-21, 00:44:01,VALID,916.459,VALID,0,VALID,95.9476,VALID,0,VALID,20.2323,VALID,47,VALID,0,
2001-01-21, 00:45:01,VALID,916.477,VALID,0,VALID,96.0888,VALID,0,VALID,20.2323,VALID,41,VALID,0,
2001-01-21, 00:46:01,VALID,916.473,VALID,0,VALID,96.0354,VALID,-0.0169808,VALID,20.2355,VALID,89,VALID,0,
2001-01-21, 00:47:01,VALID,916.468,VALID,0,VALID,95.8828,VALID,0,VALID,20.2226,VALID,90,VALID,0,
2001-01-21, 00:48:01,VALID,916.475,VALID,0,VALID,96.0875,VALID,0,VALID,20.2323,VALID,90,VALID,0,
2001-01-21, 00:49:01,VALID,916.47,VALID,0,VALID,96.3355,VALID,0,VALID,20.2522,VALID,90,VALID,0,
2001-01-21, 00:50:01,VALID,916.457,VALID,0,VALID,96.3838,VALID,0,VALID,20.2613,VALID,90,VALID,0,
2001-01-21, 00:51:01,VALID,916.405,VALID,0,VALID,96.2223,VALID,0,VALID,20.2681,VALID,90,VALID,0,
2001-01-21, 00:52:01,VALID,916.385,VALID,0,VALID,96.0875,VALID,0.0169808,VALID,20.2382,VALID,90,VALID,0,
2001-01-21, 00:53:00,VALID,916.362,VALID,0,VALID,96.3151,VALID,0,VALID,20.2385,VALID,80,VALID,0.179297,
2001-01-21, 00:54:00,VALID,916.342,VALID,0,VALID,96.5669,VALID,0,VALID,20.2457,VALID,85,VALID,0.16653,
2001-01-21, 00:55:00,VALID,916.303,VALID,0,VALID,96.6076,VALID,-0.0339617,VALID,20.236,VALID,85,VALID,0.198437,
2001-01-21, 00:56:00,VALID,916.25,VALID,0,VALID,96.5911,VALID,0,VALID,20.2067,VALID,85,VALID,0.186899,
2001-01-21, 00:57:00,VALID,916.214,VALID,0,VALID,96.6585,VALID,-0.0339617,VALID,20.2102,VALID,85,VALID,0.0613281,
2001-01-21, 00:58:00,VALID,916.196,VALID,0,VALID,96.82,VALID,-0.0169808,VALID,20.2263,VALID,85,VALID,0.169408,
2001-01-21, 00:59:00,VALID,916.202,VALID,0,VALID,96.8543,VALID,-0.0169808,VALID,20.2328,VALID,85,VALID,0.00292969,
2001-01-21, 01:00:00,VALID,916.203,VALID,0,VALID,96.8848,VALID,-0.0339617,VALID,20.2459,VALID,85,VALID,0,
2001-01-21, 01:01:00,VALID,916.203,VALID,0,VALID,96.9001,VALID,-0.0169808,VALID,20.2681,VALID,90,VALID,0,
2001-01-21, 01:02:00,VALID,916.197,VALID,0,VALID,96.9675,VALID,-0.0169808,VALID,20.2812,VALID,90,VALID,0,
2001-01-21, 01:03:00,VALID,916.175,VALID,0,VALID,97.0005,VALID,0,VALID,20.2907,VALID,90,VALID,0,
2001-01-21, 01:04:00,VALID,916.187,VALID,0,VALID,97.0349,VALID,0,VALID,20.3038,VALID,90,VALID,0,
2001-01-21, 01:05:00,VALID,916.196,VALID,0,VALID,96.8696,VALID,0,VALID,20.3038,VALID,90,VALID,0,
2001-01-21, 01:06:00,VALID,916.201,VALID,0,VALID,96.7488,VALID,0,VALID,20.2971,VALID,90,VALID,0,
2001-01-21, 01:07:00,VALID,916.221,VALID,0,VALID,96.7437,VALID,0.0169808,VALID,20.3103,VALID,90,VALID,0,
2001-01-21, 01:08:00,VALID,916.22,VALID,0,VALID,96.7348,VALID,0,VALID,20.3168,VALID,90,VALID,0,
2001-01-21, 01:09:00,VALID,916.213,VALID,0,VALID,96.7602,VALID,0,VALID,20.3262,VALID,102,VALID,0.0761719,
2001-01-21, 01:10:00,VALID,916.191,VALID,0,VALID,96.6445,VALID,0,VALID,20.3262,VALID,102,VALID,0.41139,
2001-01-21, 01:11:00,VALID,916.166,VALID,0,VALID,96.4398,VALID,0,VALID,20.33,VALID,102,VALID,0.416211,
2001-01-21, 01:12:00,VALID,916.153,VALID,0,VALID,96.4894,VALID,-0.0169808,VALID,20.3294,VALID,101,VALID,0.227965,
2001-01-21, 01:13:00,VALID,916.143,VALID,0,VALID,96.5733,VALID,-0.0169808,VALID,20.3329,VALID,101,VALID,0.00546875,
2001-01-21, 01:14:00,VALID,916.14,VALID,0,VALID,96.6483,VALID,0,VALID,20.3332,VALID,101,VALID,0,
2001-01-21, 01:15:00,VALID,916.142,VALID,0,VALID,96.717,VALID,-0.0169808,VALID,20.3235,VALID,101,VALID,0,
2001-01-21, 01:16:00,VALID,916.137,VALID,0,VALID,96.8454,VALID,0,VALID,20.3073,VALID,101,VALID,0,
2001-01-21, 01:17:00,VALID,916.121,VALID,0,VALID,96.9662,VALID,0,VALID,20.3143,VALID,102,VALID,0,
2001-01-21, 01:18:00,VALID,916.084,VALID,0,VALID,97.0717,VALID,0,VALID,20.3235,VALID,107,VALID,0,
2001-01-21, 01:19:00,VALID,916.051,VALID,0,VALID,97.1506,VALID,-0.0169808,VALID,20.3431,VALID,107,VALID,0,
2001-01-21, 01:20:00,VALID,916.024,VALID,0,VALID,97.1315,VALID,0,VALID,20.3396,VALID,110,VALID,0,
2001-01-21, 01:21:00,VALID,916.018,VALID,0,VALID,97.0183,VALID,-0.0169808,VALID,20.3391,VALID,114,VALID,0,
2001-01-21, 01:22:00,VALID,916.017,VALID,0,VALID,96.9726,VALID,-0.0169808,VALID,20.3232,VALID,117,VALID,0,
2001-01-21, 01:23:00,VALID,916.021,VALID,0,VALID,96.9764,VALID,-0.0509425,VALID,20.3036,VALID,143,VALID,0,
2001-01-21, 01:24:00,VALID,915.999,VALID,0,VALID,97.0209,VALID,-0.0679233,VALID,20.282,VALID,158,VALID,0,
2001-01-21, 01:25:00,VALID,915.987,VALID,0,VALID,97.1798,VALID,-0.0679233,VALID,20.2613,VALID,158,VALID,0,
2001-01-21, 01:26:00,VALID,915.983,VALID,0,VALID,97.2994,VALID,-0.0509425,VALID,20.2718,VALID,158,VALID,0,
2001-01-21, 01:27:00,VALID,915.984,VALID,0,VALID,97.3617,VALID,-0.0509425,VALID,20.282,VALID,158,VALID,0,
2001-01-21, 01:28:00,VALID,915.978,VALID,0,VALID,97.2727,VALID,-0.0849042,VALID,20.2591,VALID,158,VALID,0,
2001-01-21, 01:29:00,VALID,915.953,VALID,0,VALID,97.2727,VALID,-0.0169808,VALID,20.233,VALID,158,VALID,0,
2001-01-21, 01:30:00,VALID,915.951,VALID,0,VALID,97.293,VALID,-0.0679233,VALID,20.2268,VALID,161,VALID,0,
2001-01-21, 01:31:00,VALID,915.948,VALID,0,VALID,97.3032,VALID,-0.0679233,VALID,20.191,VALID,274,VALID,0,
2001-01-21, 01:32:00,VALID,915.967,VALID,0,VALID,97.3413,VALID,0,VALID,20.1649,VALID,297,VALID,0,
2001-01-21, 01:33:00,VALID,915.961,VALID,0,VALID,97.4075,VALID,-0.0509425,VALID,20.146,VALID,297,VALID,0,
2001-01-21, 01:34:00,VALID,915.946,VALID,0,VALID,97.5079,VALID,0,VALID,20.1162,VALID,298,VALID,0.0273438,
2001-01-21, 01:35:00,VALID,915.95,VALID,0,VALID,97.5677,VALID,-0.0169808,VALID,20.104,VALID,313,VALID,0.516602,
2001-01-21, 01:36:00,VALID,915.94,VALID,0,VALID,97.663,VALID,-0.101885,VALID,20.0715,VALID,312,VALID,0.343349,
2001-01-21, 01:37:00,VALID,915.945,VALID,0,VALID,97.7889,VALID,-0.152827,VALID,20.0762,VALID,294,VALID,0.208984,
2001-01-21, 01:38:00,VALID,915.949,VALID,0,VALID,97.8958,VALID,-0.101885,VALID,20.0752,VALID,264,VALID,0.144737,
2001-01-21, 01:39:00,VALID,915.953,VALID,0,VALID,97.9199,VALID,-0.152827,VALID,20.0695,VALID,252,VALID,0,
2001-01-21, 01:40:00,VALID,915.953,VALID,0,VALID,97.911,VALID,-0.101885,VALID,20.0631,VALID,247,VALID,0,
2001-01-21, 01:41:00,VALID,915.955,VALID,0,VALID,97.9555,VALID,-0.118866,VALID,20.0501,VALID,243,VALID,0.0519531,
2001-01-21, 01:42:00,VALID,915.975,VALID,0,VALID,97.9364,VALID,-0.135847,VALID,20.0402,VALID,247,VALID,0.553248,
2001-01-21, 01:43:00,VALID,915.962,VALID,0,VALID,97.9606,VALID,-0.101885,VALID,20.0278,VALID,259,VALID,0.203516,
2001-01-21, 01:44:00,VALID,915.956,VALID,0,VALID,98.0242,VALID,-0.135847,VALID,20.0176,VALID,254,VALID,0.0398638,
2001-01-21, 01:45:00,VALID,915.956,VALID,0,VALID,98.0687,VALID,-0.118866,VALID,20.0275,VALID,274,VALID,0.0480469,
2001-01-21, 01:46:00,VALID,915.942,VALID,0,VALID,98.0992,VALID,-0.152827,VALID,20.0278,VALID,287,VALID,0.146587,
2001-01-21, 01:47:00,VALID,915.925,VALID,0,VALID,98.1246,VALID,-0.118866,VALID,20.0313,VALID,288,VALID,0.348242,
2001-01-21, 01:48:00,VALID,915.923,VALID,0,VALID,98.1691,VALID,-0.101885,VALID,20.0211,VALID,256,VALID,0.292268,
2001-01-21, 01:49:00,VALID,915.933,VALID,0,VALID,98.2022,VALID,-0.118866,VALID,20.0315,VALID,287,VALID,0.397266,
2001-01-21, 01:50:00,VALID,915.96,VALID,0,VALID,98.2378,VALID,-0.135847,VALID,20.0243,VALID,281,VALID,0.306127,
2001-01-21, 01:51:00,VALID,915.977,VALID,0,VALID,98.2327,VALID,-0.0509425,VALID,20.024,VALID,286,VALID,0.0492188,
2001-01-21, 01:52:00,VALID,915.975,VALID,0,VALID,98.2861,VALID,0,VALID,20.0325,VALID,286,VALID,0,
2001-01-21, 01:53:00,VALID,915.97,VALID,0,VALID,98.3268,VALID,-0.0169808,VALID,20.0456,VALID,286,VALID,0,
2001-01-21, 01:54:00,VALID,915.969,VALID,0,VALID,98.3713,VALID,-0.0169808,VALID,20.0683,VALID,286,VALID,0,
2001-01-21, 01:55:00,VALID,915.956,VALID,0,VALID,98.3828,VALID,-0.0679233,VALID,20.0842,VALID,287,VALID,0.0287109,
2001-01-21, 01:56:00,VALID,915.947,VALID,0,VALID,98.3866,VALID,-0.0509425,VALID,20.1008,VALID,286,VALID,0.180889,
2001-01-21, 01:57:00,VALID,915.921,VALID,0,VALID,98.3853,VALID,-0.0679233,VALID,20.117,VALID,286,VALID,0.0792969,
2001-01-21, 01:58:00,VALID,915.933,VALID,0,VALID,98.3764,VALID,-0.0509425,VALID,20.1165,VALID,286,VALID,0,
2001-01-21, 01:59:00,VALID,915.919,VALID,0,VALID,98.3357,VALID,-0.0339617,VALID,20.11,VALID,286,VALID,0,
2001-01-21, 02:00:00,VALID,915.899,VALID,0,VALID,98.3128,VALID,-0.0339617,VALID,20.1033,VALID,286,VALID,0,
2001-01-21, 02:01:00,VALID,915.877,VALID,0,VALID,98.2785,VALID,-0.0509425,VALID,20.0976,VALID,286,VALID,0,
2001-01-21, 02:02:00,VALID,915.857,VALID,0,VALID,98.2365,VALID,-0.0339617,VALID,20.0839,VALID,4,VALID,0.296875,
2001-01-21, 02:03:00,VALID,915.842,VALID,0,VALID,98.1908,VALID,-0.0509425,VALID,20.0747,VALID,93,VALID,0.327734,
2001-01-21, 02:04:00,VALID,915.828,VALID,0,VALID,98.1475,VALID,-0.0169808,VALID,20.0683,VALID,95,VALID,0.0757212,
2001-01-21, 02:05:00,VALID,915.82,VALID,0,VALID,98.1475,VALID,-0.0509425,VALID,20.0715,VALID,96,VALID,0.0857372,
2001-01-21, 02:06:00,VALID,915.82,VALID,0,VALID,98.1106,VALID,-0.0339617,VALID,20.0613,VALID,96,VALID,0.130962,
2001-01-21, 02:07:00,VALID,915.816,VALID,0,VALID,98.0255,VALID,0.0339617,VALID,20.0414,VALID,107,VALID,0.0255859,
2001-01-21, 02:08:00,VALID,915.797,VALID,0,VALID,97.9021,VALID,0,VALID,20.0257,VALID,162,VALID,0.158053,
2001-01-21, 02:09:00,VALID,915.787,VALID,0,VALID,97.8919,VALID,0.0169808,VALID,20.0066,VALID,161,VALID,0.0046875,
2001-01-21, 02:10:00,VALID,915.789,VALID,0,VALID,97.925,VALID,0,VALID,20.0133,VALID,159,VALID,0,
2001-01-21, 02:11:00,VALID,915.776,VALID,0,VALID,97.9148,VALID,0.0169808,VALID,20.0064,VALID,158,VALID,0.303711,
2001-01-21, 02:12:00,VALID,915.754,VALID,0,VALID,97.8118,VALID,0,VALID,20.0126,VALID,157,VALID,0.0771234,
2001-01-21, 02:13:00,VALID,915.733,VALID,0,VALID,97.6262,VALID,0,VALID,19.9795,VALID,215,VALID,0,
2001-01-21, 02:14:00,VALID,915.735,VALID,0,VALID,97.5435,VALID,0,VALID,20.0091,VALID,293,VALID,0.121711,
2001-01-21, 02:15:00,VALID,915.73,VALID,0,VALID,97.438,VALID,0.0169808,VALID,20.0185,VALID,345,VALID,0.148828,
2001-01-21, 02:16:00,VALID,915.721,VALID,0,VALID,97.382,VALID,0.0339617,VALID,20.0486,VALID,320,VALID,0.14403,
2001-01-21, 02:17:00,VALID,915.704,VALID,0,VALID,97.2981,VALID,0,VALID,20.0449,VALID,102,VALID,0.408984,
2001-01-21, 02:18:00,VALID,915.689,VALID,0,VALID,97.1353,VALID,0,VALID,20.0384,VALID,109,VALID,0.160567,
2001-01-21, 02:19:00,VALID,915.675,VALID,0,VALID,97.0679,VALID,0,VALID,20.0223,VALID,109,VALID,0.0550781,
2001-01-21, 02:20:00,VALID,915.667,VALID,0,VALID,96.9993,VALID,-0.0169808,VALID,20.0131,VALID,109,VALID,0,
2001-01-21, 02:21:00,VALID,915.671,VALID,0,VALID,96.9878,VALID,0,VALID,20.0158,VALID,109,VALID,0,
2001-01-21, 02:22:00,VALID,915.656,VALID,0,VALID,96.8467,VALID,0,VALID,19.9934,VALID,109,VALID,0,
2001-01-21, 02:23:00,VALID,915.636,VALID,0,VALID,96.764,VALID,0,VALID,19.9641,VALID,106,VALID,0,
2001-01-21, 02:24:00,VALID,915.646,VALID,0,VALID,96.8836,VALID,0.0169808,VALID,19.9579,VALID,99,VALID,0,
2001-01-21, 02:25:00,VALID,915.633,VALID,0,VALID,96.9802,VALID,0.0169808,VALID,19.9291,VALID,99,VALID,0,
2001-01-21, 02:26:00,VALID,915.639,VALID,0,VALID,97.0959,VALID,0,VALID,19.8993,VALID,94,VALID,0.320107,
2001-01-21, 02:27:00,VALID,915.623,VALID,0,VALID,97.1887,VALID,0.0169808,VALID,19.8834,VALID,81,VALID,0.389844,
2001-01-21, 02:28:00,VALID,915.597,VALID,0,VALID,97.2599,VALID,0.0169808,VALID,19.864,VALID,83,VALID,0.400441,
2001-01-21, 02:29:00,VALID,915.573,VALID,0,VALID,97.3642,VALID,0,VALID,19.8481,VALID,101,VALID,0.426367,
2001-01-21, 02:30:00,VALID,915.567,VALID,0,VALID,97.4214,VALID,0,VALID,19.8222,VALID,101,VALID,0.259046,
2001-01-21, 02:31:00,VALID,915.576,VALID,0,VALID,97.5906,VALID,0.0169808,VALID,19.8381,VALID,96,VALID,0.177539,
2001-01-21, 02:32:00,VALID,915.565,VALID,0,VALID,97.7165,VALID,0,VALID,19.8414,VALID,94,VALID,0.364183,
2001-01-21, 02:33:00,VALID,915.556,VALID,0,VALID,97.8106,VALID,0.0169808,VALID,19.8774,VALID,86,VALID,0.530078,
2001-01-21, 02:34:00,VALID,915.547,VALID,0,VALID,97.8779,VALID,0.0169808,VALID,19.8836,VALID,93,VALID,0.478618,
2001-01-21, 02:35:00,VALID,915.546,VALID,0,VALID,97.9199,VALID,0,VALID,19.8965,VALID,104,VALID,0.299609,
2001-01-21, 02:36:00,VALID,915.541,VALID,0,VALID,97.9822,VALID,0,VALID,19.91,VALID,112,VALID,0.341747,
2001-01-21, 02:37:00,VALID,915.535,VALID,0,VALID,97.9555,VALID,0,VALID,19.9032,VALID,112,VALID,0.0246094,
2001-01-21, 02:38:00,VALID,915.521,VALID,0,VALID,97.9212,VALID,0,VALID,19.8796,VALID,112,VALID,0,
2001-01-21, 02:39:00,VALID,915.507,VALID,0,VALID,97.9377,VALID,0.0339617,VALID,19.8893,VALID,112,VALID,0,
2001-01-21, 02:40:00,VALID,915.485,VALID,0,VALID,97.9199,VALID,0,VALID,19.8799,VALID,112,VALID,0,
2001-01-21, 02:41:00,VALID,915.464,VALID,0,VALID,97.9568,VALID,0.0339617,VALID,19.903,VALID,112,VALID,0,
2001-01-21, 02:42:00,VALID,915.461,VALID,0,VALID,97.9606,VALID,0,VALID,19.9224,VALID,112,VALID,0,
2001-01-21, 02:43:00,VALID,915.445,VALID,0,VALID,97.972,VALID,0.0169808,VALID,19.9219,VALID,112,VALID,0,
2001-01-21, 02:44:00,VALID,915.436,VALID,0,VALID,97.9314,VALID,0.0169808,VALID,19.9383,VALID,112,VALID,0,
2001-01-21, 02:45:00,VALID,915.426,VALID,0,VALID,97.8703,VALID,0,VALID,19.9353,VALID,112,VALID,0,
2001-01-21, 02:46:00,VALID,915.419,VALID,0,VALID,97.9021,VALID,0.0339617,VALID,19.9353,VALID,112,VALID,0.0592105,
2001-01-21, 02:47:00,VALID,915.425,VALID,0,VALID,97.8678,VALID,0,VALID,19.9288,VALID,112,VALID,0.390625,
2001-01-21, 02:48:00,VALID,915.439,VALID,0,VALID,97.8373,VALID,0,VALID,19.8995,VALID,109,VALID,0.0534856,
2001-01-21, 02:49:00,VALID,915.447,VALID,0,VALID,97.8487,VALID,0,VALID,19.8839,VALID,104,VALID,0,
2001-01-21, 02:50:00,VALID,915.448,VALID,0,VALID,97.8818,VALID,0,VALID,19.8645,VALID,100,VALID,0,
2001-01-21, 02:51:00,VALID,915.442,VALID,0,VALID,97.8525,VALID,0,VALID,19.8322,VALID,83,VALID,0,
2001-01-21, 02:52:00,VALID,915.423,VALID,0,VALID,97.8423,VALID,0,VALID,19.7899,VALID,77,VALID,0,
2001-01-21, 02:53:00,VALID,915.417,VALID,0,VALID,97.9021,VALID,-0.0169808,VALID,19.7743,VALID,76,VALID,0,
2001-01-21, 02:54:00,VALID,915.405,VALID,0,VALID,97.9606,VALID,0,VALID,19.7574,VALID,76,VALID,0,
2001-01-21, 02:55:00,VALID,915.392,VALID,0,VALID,98.0267,VALID,0.0169808,VALID,19.7484,VALID,76,VALID,0,
2001-01-21, 02:56:00,VALID,915.395,VALID,0,VALID,98.0941,VALID,0.0169808,VALID,19.7509,VALID,51,VALID,0,
2001-01-21, 02:57:00,VALID,915.392,VALID,0,VALID,98.1539,VALID,0,VALID,19.7477,VALID,284,VALID,0,
2001-01-21, 02:58:00,VALID,915.374,VALID,0,VALID,98.2302,VALID,0,VALID,19.7735,VALID,285,VALID,0,
2001-01-21, 02:59:00,VALID,915.346,VALID,0,VALID,98.2493,VALID,0.0339617,VALID,19.7837,VALID,270,VALID,0,
2001-01-21, 03:00:00,VALID,915.333,VALID,0,VALID,98.2734,VALID,0.0169808,VALID,19.7835,VALID,278,VALID,0,
2001-01-21, 03:01:00,VALID,915.313,VALID,0,VALID,98.2467,VALID,0.0169808,VALID,19.7606,VALID,283,VALID,0.14375,
2001-01-21, 03:02:00,VALID,915.287,VALID,0,VALID,98.2823,VALID,0,VALID,19.7613,VALID,283,VALID,0.0503701,
2001-01-21, 03:03:00,VALID,915.272,VALID,0,VALID,98.3077,VALID,0.0169808,VALID,19.7541,VALID,305,VALID,0.0322266,
2001-01-21, 03:04:00,VALID,915.261,VALID,0,VALID,98.3383,VALID,0.0169808,VALID,19.7509,VALID,314,VALID,0,
2001-01-21, 03:05:00,VALID,915.236,VALID,0,VALID,98.3955,VALID,0,VALID,19.7606,VALID,317,VALID,0.284961,
2001-01-21, 03:06:00,VALID,915.218,VALID,0,VALID,98.4184,VALID,0.0169808,VALID,19.7638,VALID,321,VALID,0.490337,
2001-01-21, 03:07:00,VALID,915.188,VALID,0,VALID,98.4502,VALID,0,VALID,19.7604,VALID,316,VALID,0.364648,
2001-01-21, 03:08:00,VALID,915.166,VALID,0,VALID,98.468,VALID,0.0679233,VALID,19.7671,VALID,314,VALID,0.0136218,
2001-01-21, 03:09:00,VALID,915.143,VALID,0,VALID,98.4972,VALID,0.0169808,VALID,19.7708,VALID,314,VALID,0.0185547,
2001-01-21, 03:10:00,VALID,915.146,VALID,0,VALID,98.515,VALID,0.0169808,VALID,19.7869,VALID,314,VALID,0.24301,
2001-01-21, 03:11:00,VALID,915.143,VALID,0,VALID,98.5443,VALID,0.0339617,VALID,19.777,VALID,313,VALID,0.0693359,
2001-01-21, 03:12:00,VALID,915.144,VALID,0,VALID,98.5608,VALID,0,VALID,19.7832,VALID,311,VALID,0.0132212,
2001-01-21, 03:13:00,VALID,915.145,VALID,0,VALID,98.5595,VALID,0.0169808,VALID,19.777,VALID,311,VALID,0.115625,
2001-01-21, 03:14:00,VALID,915.145,VALID,0,VALID,98.5659,VALID,0.0169808,VALID,19.777,VALID,311,VALID,0.0565378,
2001-01-21, 03:15:00,VALID,915.146,VALID,0,VALID,98.5748,VALID,0,VALID,19.7773,VALID,311,VALID,0,
2001-01-21, 03:16:00,VALID,915.138,VALID,0,VALID,98.585,VALID,0.0169808,VALID,19.7869,VALID,311,VALID,0,
2001-01-21, 03:17:00,VALID,915.12,VALID,0,VALID,98.5875,VALID,0.0169808,VALID,19.8004,VALID,311,VALID,0,
2001-01-21, 03:18:00,VALID,915.107,VALID,0,VALID,98.5595,VALID,0.0339617,VALID,19.7869,VALID,287,VALID,0.289063,
2001-01-21, 03:19:00,VALID,915.101,VALID,0,VALID,98.5481,VALID,0.0169808,VALID,19.7638,VALID,332,VALID,0.0847656,
2001-01-21, 03:20:00,VALID,915.109,VALID,0,VALID,98.5506,VALID,0.0169808,VALID,19.7705,VALID,314,VALID,0,
2001-01-21, 03:21:00,VALID,915.103,VALID,0,VALID,98.5633,VALID,-0.0509425,VALID,19.7616,VALID,314,VALID,0,
2001-01-21, 03:22:00,VALID,915.11,VALID,0,VALID,98.5417,VALID,-0.0509425,VALID,19.7457,VALID,311,VALID,0,
2001-01-21, 03:23:00,VALID,915.118,VALID,0,VALID,98.5519,VALID,-0.0849042,VALID,19.7527,VALID,307,VALID,0,
2001-01-21, 03:24:00,VALID,915.119,VALID,0,VALID,98.5519,VALID,-0.0849042,VALID,19.7459,VALID,323,VALID,0,
2001-01-21, 03:25:00,VALID,915.108,VALID,0,VALID,98.5557,VALID,-0.0679233,VALID,19.7661,VALID,323,VALID,0,
2001-01-21, 03:26:00,VALID,915.109,VALID,0,VALID,98.5621,VALID,-0.0849042,VALID,19.7591,VALID,313,VALID,0,
2001-01-21, 03:27:00,VALID,915.106,VALID,0,VALID,98.5405,VALID,-0.0679233,VALID,19.7626,VALID,295,VALID,0,
2001-01-21, 03:28:00,VALID,915.098,VALID,0,VALID,98.5087,VALID,-0.0679233,VALID,19.7467,VALID,295,VALID,0,
2001-01-21, 03:29:00,VALID,915.063,VALID,0,VALID,98.4565,VALID,-0.0849042,VALID,19.734,VALID,295,VALID,0,
2001-01-21, 03:30:00,VALID,915.058,VALID,0,VALID,98.4336,VALID,-0.0849042,VALID,19.7171,VALID,295,VALID,0,
2001-01-21, 03:31:00,VALID,915.052,VALID,0,VALID,98.3955,VALID,-0.0679233,VALID,19.7107,VALID,295,VALID,0,
2001-01-21, 03:32:00,VALID,915.066,VALID,0,VALID,98.3917,VALID,-0.0679233,VALID,19.7104,VALID,291,VALID,0,
2001-01-21, 03:33:00,VALID,915.08,VALID,0,VALID,98.3701,VALID,-0.0339617,VALID,19.7072,VALID,236,VALID,0,
2001-01-21, 03:34:00,VALID,915.062,VALID,0,VALID,98.3535,VALID,-0.0679233,VALID,19.6945,VALID,203,VALID,0,
2001-01-21, 03:35:00,VALID,915.039,VALID,0,VALID,98.2989,VALID,-0.0849042,VALID,19.6915,VALID,199,VALID,0,
2001-01-21, 03:36:00,VALID,915.029,VALID,0,VALID,98.234,VALID,-0.0169808,VALID,19.6682,VALID,198,VALID,0,
2001-01-21, 03:37:00,VALID,915.025,VALID,0,VALID,98.2238,VALID,0.0509425,VALID,19.6577,VALID,198,VALID,0,
2001-01-21, 03:38:00,VALID,915.021,VALID,0,VALID,98.2429,VALID,0.0339617,VALID,19.655,VALID,198,VALID,0,
2001-01-21, 03:39:00,VALID,915.014,VALID,0,VALID,98.1831,VALID,0.0339617,VALID,19.6282,VALID,174,VALID,0.360742,
2001-01-21, 03:40:00,VALID,915.007,VALID,0,VALID,98.1386,VALID,0.0509425,VALID,19.6093,VALID,157,VALID,0.809495,
2001-01-21, 03:41:00,VALID,914.977,VALID,0,VALID,98.131,VALID,0.0509425,VALID,19.5966,VALID,152,VALID,0.923242,
2001-01-21, 03:42:00,VALID,914.957,VALID,0,VALID,98.1361,VALID,0.0169808,VALID,19.5544,VALID,160,VALID,0.73972,